Weather in Guerande

France     47°19′47″N   2°25′37″W
temp.,
°C
wind,
m/s
gust,
m/s
humid.,
%
clouds,
%
prec.,
mm/h
press.,
hPa
HPBL,
m
12 may, wed
wed1223:00+12wsw91069100 0.1 10141184
02:00+12sw786992 0.2 10131163
05:00+12ssw7872100 0.2 10111095
08:00+12s81085100 2.1 1010756
11:00+12sse121380100 2.4 1008950
14:00+13s911835 2.8 1007810
17:00+12w131493100 1.9 1007907
20:00+12wnw1315683 4.0 10101314
13 may, thu
thu1323:00+12w11137941 0.1 10111047
02:00+13w12147898 0.4 10111149
05:00+12w1213777 0.7 10101123
08:00+12w11127614 1.3 10101082
11:00+12wsw1011755 0.4 10091066
14:00+12wsw10117994 0.8 10091020
17:00+13w910790 0.3 1008874
20:00+13w1011814 0.3 1009720
14 may, fri
fri1423:00+12nw1111680 0.0 1010902
02:00+12wnw1012730 0.0 10111009
05:00+12wnw111376100 0.1 10111196
08:00+12wnw1113776 0.4 10121100
11:00+12wnw1011765 0.1 1013975
14:00+12w11127927 0.2 1014773
17:00+13w111173100 0.0 1014735
20:00+13w81077100 0.0 1013862
15 may, sat
sat1523:00+12wsw91077100 0.4 1013946
02:00+11s101288100 3.3 1010852
05:00+13ssw111495100 3.4 1007731
08:00+13w91189100 3.6 1008824
11:00+13wsw81088100 0.1 1009804
14:00+13wsw8873100 0.3 1010819
17:00+13wsw8979100 0.5 1010731
20:00+13w91081100 0.5 1010819
16 may, sun
sun1623:00+13wsw9118593 0.0 1011952
02:00+13wsw9118335 0.0 1011844
05:00+13wsw9118343 0.0 1011855
08:00+13wsw91284100 0.1 1010948
11:00+13wsw91283100 0.4 1010971
14:00+13w91177100 0.4 1011984
17:00+13w1013790 0.0 10101152
20:00+13w1215815 0.2 10101276